sat.trackr.live / text

‹ back to catalog

GAOFEN-7

NORAD 44703 · 2019-072A

PAYLOAD ACTIVE UNKNOWN

§ Identity

Operator
Country
PRC
Launch date
2019-11-03
Launch site
TAISC
Launch vehicle
Mass (kg)
RCS (m²)

External: N2YO · Heavens-Above · Gunter

§ Orbital elements

Epoch: 2026-05-25T04:19:48.359712Z

Period
94.65 min
Inclination
97.2440°
Eccentricity
0.0018178
Mean motion
15.21393333 rev/d
Perigee alt
489.1 km
Apogee alt
514.1 km
Semi-major
6,879.8 km
B*
1.8332e-4
RAAN
207.5094°
Arg perigee
114.6924°
Mean anomaly
245.6207°
Rev number
36,414

§ Raw data

GAOFEN-71 44703U 19072A   26145.18042083  .00004062  00000+0  18332-3 0  99922 44703  97.2440 207.5094 0018178 114.6924 245.6207 15.21393333364142

JSON: /api/v1/satellites/44703 · /tle

For live sub-satellite position, see the globe view (requires WebGL).

§ Visibility from observer

Set your observer location to see the next 7 days of passes ≥ 10°. The values pass through the URL so the page stays shareable.

No JS? Fill the form by hand. The geolocation button needs JavaScript.

§ Radio — SatNOGS DB

ModeDescriptionDownlinkUplink
LoRa LoRa 400.450 MHz
BPSK S-band telemetry 2.252 GHz
BPSK Telemetry 2.202 GHz

3 transmitters · refreshed weekly from db.satnogs.org